DW5301 Antwerp BE current weather conditions

sailwx.info

Wind from 187 at 2 knots gusting 8

Air temperature 11.7° C
Dewpoint 8.1° C

Last reported at 2018-Sep-22 06:00 UTC.
Time now 2018-Sep-22 06:55 UTC

Location: N 51°17' E 004°25'.
View on Google Maps.

See reports from other nearby stations

  
Tides and Currents Weather Stations Pressure Air Temp Water Temp Dewpoint Dewpoint Depression Visibility Wind Speed Wind Dir Waves Ship Positions
date/time (UTC)wind fromknots sea level pressurealtimeterstation pressurevisibilityair tempwater tempwave heightnotes
2018-Sep-22 06:00 187 2 gusting 8 11.7
2018-Sep-22 05:40 204 4 gusting 7 11.7
2018-Sep-22 05:30 205 4 gusting 10 11.7
2018-Sep-22 05:20 192 3 gusting 10 11.7
2018-Sep-22 04:50 200 5 gusting 10 11.7
2018-Sep-22 03:40 203 4 gusting 10 12.2
2018-Sep-22 03:30 194 4 gusting 7 12.8
2018-Sep-22 03:10 207 4 gusting 7 12.8
2018-Sep-22 03:00 190 4 gusting 8 12.8
2018-Sep-22 02:50 192 2 gusting 7 13.3
2018-Sep-22 02:40 195 2 gusting 6 13.3
2018-Sep-22 02:20 201 2 gusting 6 13.3
2018-Sep-22 02:10 200 2 gusting 8 13.3
2018-Sep-22 01:40 211 4 gusting 7 13.3
2018-Sep-22 00:30 250 2 gusting 6 13.3
2018-Sep-22 00:20 207 1 gusting 4 13.3
2018-Sep-21 23:50 226 2 gusting 10 13.9
2018-Sep-21 23:20 189 2 gusting 10 14.4
2018-Sep-21 23:00 226 5 gusting 12 14.4
2018-Sep-21 22:40 201 4 gusting 13 14.4
2018-Sep-21 22:30 211 5 gusting 10 14.4
2018-Sep-21 22:20 205 4 gusting 10 14.4
2018-Sep-21 22:10 207 5 gusting 10 14.4
2018-Sep-21 22:00 207 5 gusting 13 14.4
2018-Sep-21 21:40 221 6 gusting 13 14.4
2018-Sep-21 21:20 205 5 gusting 12 14.4
2018-Sep-21 21:10 212 8 gusting 20 14.4
2018-Sep-21 21:00 204 6 gusting 20 14.4
2018-Sep-21 20:40 210 6 gusting 19 15.0
2018-Sep-21 20:20 202 7 gusting 19 15.0
2018-Sep-21 19:50 207 6 gusting 14 15.0
2018-Sep-21 19:40 203 6 gusting 17 15.0
2018-Sep-21 19:30 203 6 gusting 17 15.0
2018-Sep-21 18:50 209 9 gusting 18 15.6
2018-Sep-21 18:30 202 6 gusting 15 15.6
2018-Sep-21 18:20 205 6 gusting 17 15.6
2018-Sep-21 18:10 211 6 gusting 19 16.1
2018-Sep-21 17:50 187 6 gusting 18 16.1
2018-Sep-21 17:40 207 7 gusting 19 16.1
2018-Sep-21 17:20 197 7 gusting 22 16.1
2018-Sep-21 17:00 231 7 gusting 17 16.1
2018-Sep-21 16:50 207 6 gusting 17 16.1
2018-Sep-21 16:40 211 5 gusting 13 15.6
2018-Sep-21 16:30 201 5 gusting 12 15.0
2018-Sep-21 16:20 215 2 gusting 13 15.0
2018-Sep-21 16:10 193 4 gusting 13 15.6
2018-Sep-21 16:00 214 8 gusting 22 16.1
2018-Sep-21 15:00 200 8 gusting 19 17.8
2018-Sep-21 14:40 205 7 gusting 19 17.8
2018-Sep-21 14:20 199 5 gusting 19 17.8
2018-Sep-21 13:50 199 5 gusting 14 17.8
2018-Sep-21 13:40 212 6 gusting 18 17.2
2018-Sep-21 13:30 227 6 gusting 18 17.8
2018-Sep-21 13:20 222 6 gusting 15 18.3
2018-Sep-21 13:10 202 6 gusting 14 17.8
2018-Sep-21 13:00 240 6 gusting 17 17.8
2018-Sep-21 12:50 219 8 gusting 19 17.8
2018-Sep-21 12:40 236 6 gusting 19 17.8
2018-Sep-21 11:50 227 6 gusting 15 17.2
2018-Sep-21 11:40 198 5 gusting 14 16.1
2018-Sep-21 11:30 215 6 gusting 14 16.7
2018-Sep-21 11:10 233 6 gusting 17 16.1
2018-Sep-21 10:40 215 7 gusting 17 16.1
2018-Sep-21 10:20 226 6 gusting 19 16.1
2018-Sep-21 10:00 219 6 gusting 17 16.7
2018-Sep-21 09:50 220 6 gusting 14 16.7
2018-Sep-21 09:30 231 5 gusting 14 16.1
2018-Sep-21 09:20 232 7 gusting 15 16.1
2018-Sep-21 09:10 235 5 gusting 19 16.1
2018-Sep-21 09:00 212 6 gusting 19 16.1
2018-Sep-21 08:50 215 6 gusting 17 16.1
2018-Sep-21 08:30 212 6 gusting 15 16.1
2018-Sep-21 08:20 210 6 gusting 13 16.1
2018-Sep-21 08:00 201 7 gusting 17 16.1
2018-Sep-21 07:30 196 4 gusting 15 15.6
2018-Sep-21 06:50 202 6 gusting 17 15.6
2018-Sep-21 05:30 188 6 gusting 24 17.8
2018-Sep-21 05:20 182 7 gusting 24 18.3
2018-Sep-21 05:10 202 8 gusting 20 18.9
2018-Sep-21 05:00 186 8 gusting 19 18.9
2018-Sep-21 04:50 200 11 gusting 26 19.4
2018-Sep-21 04:40 192 6 gusting 17 19.4
2018-Sep-21 04:10 181 6 gusting 17 19.4
2018-Sep-21 04:00 188 8 gusting 17 19.4
2018-Sep-21 03:40 179 7 gusting 14 19.4
2018-Sep-21 03:30 182 7 gusting 17 19.4
2018-Sep-21 03:20 186 6 gusting 17 19.4
2018-Sep-21 03:10 187 8 gusting 17 19.4
2018-Sep-21 03:00 188 6 gusting 13 19.4
2018-Sep-21 02:50 184 5 gusting 19 20.0
2018-Sep-21 02:20 188 6 gusting 17 20.0
2018-Sep-21 01:20 189 6 gusting 18 21.1
2018-Sep-21 01:00 180 5 gusting 17 21.1
2018-Sep-21 00:50 192 5 gusting 13 21.1
2018-Sep-21 00:30 192 6 gusting 15 21.7
2018-Sep-21 00:10 183 6 gusting 13 21.7
2018-Sep-21 00:00 189 6 gusting 13 21.7
2018-Sep-20 23:50 187 6 gusting 12 21.7
2018-Sep-20 23:40 183 6 gusting 13 21.7
2018-Sep-20 23:20 190 6 gusting 17 21.7
2018-Sep-20 23:10 190 6 gusting 12 21.1
2018-Sep-20 23:00 196 6 gusting 12 21.1
2018-Sep-20 22:40 195 5 gusting 12 21.7
2018-Sep-20 22:10 186 6 gusting 13 21.7
2018-Sep-20 22:00 181 4 gusting 13 21.7
2018-Sep-20 21:20 190 6 gusting 13 21.7
2018-Sep-20 21:10 186 6 gusting 13 21.7
2018-Sep-20 20:40 188 6 gusting 15 21.7
2018-Sep-20 20:30 198 6 gusting 10 21.7
2018-Sep-20 20:20 188 6 gusting 12 21.7
2018-Sep-20 20:10 188 5 gusting 8 21.7
2018-Sep-20 19:30 192 6 gusting 13 22.2
2018-Sep-20 19:20 187 5 gusting 12 22.2
2018-Sep-20 19:10 188 5 gusting 15 22.2
2018-Sep-20 19:00 182 4 gusting 10 22.2
2018-Sep-20 18:20 196 3 gusting 8 22.8
2018-Sep-20 17:30 199 2 gusting 6 23.3
2018-Sep-20 17:10 194 4 gusting 7 23.3
2018-Sep-20 17:00 195 2 gusting 8 23.3
2018-Sep-20 16:50 183 4 gusting 10 23.3
2018-Sep-20 16:30 208 5 gusting 10 23.9
2018-Sep-20 16:20 196 5 gusting 13 23.9
2018-Sep-20 16:00 190 6 gusting 13 24.4
2018-Sep-20 15:50 186 6 gusting 10 24.4
2018-Sep-20 15:30 187 6 gusting 13 24.4
2018-Sep-20 15:00 192 5 gusting 19 25.0
2018-Sep-20 14:50 199 5 gusting 13 25.0
2018-Sep-20 14:40 192 7 gusting 17 25.0
2018-Sep-20 14:30 187 6 gusting 17 25.0
2018-Sep-20 14:20 188 7 gusting 14 25.0
2018-Sep-20 14:00 183 6 gusting 13 24.4
2018-Sep-20 13:50 192 7 gusting 17 24.4
2018-Sep-20 13:40 183 6 gusting 13 24.4
2018-Sep-20 13:30 200 4 gusting 13 24.4
2018-Sep-20 13:00 197 4 gusting 13 23.9
2018-Sep-20 12:00 197 6 gusting 17 22.8
2018-Sep-20 11:20 190 5 gusting 13 22.2
2018-Sep-20 10:50 192 6 gusting 13 21.7
2018-Sep-20 10:40 183 5 gusting 12 21.1
2018-Sep-20 10:30 194 4 gusting 10 21.1
2018-Sep-20 10:20 197 5 gusting 10 21.1
2018-Sep-20 09:50 205 5 gusting 10 20.6
2018-Sep-20 09:20 190 5 gusting 13 20.6
2018-Sep-20 09:10 192 5 gusting 8 20.6
2018-Sep-20 08:40 211 4 gusting 10 19.4
2018-Sep-20 08:20 188 4 gusting 10 18.9
2018-Sep-20 08:10 194 6 gusting 10 18.9
2018-Sep-20 08:00 194 4 gusting 10 18.9
2018-Sep-20 07:50 201 3 gusting 12 18.3
2018-Sep-20 07:40 196 5 gusting 13 18.3
2018-Sep-20 07:30 202 5 gusting 14 17.8
2018-Sep-20 07:20 197 5 gusting 8 17.8
2018-Sep-20 07:00 195 5 gusting 12 17.2
2018-Sep-20 06:50 188 4 gusting 10 17.2
2018-Sep-20 06:40 201 4 gusting 8 17.2
2018-Sep-20 06:30 188 5 gusting 8 17.2
2018-Sep-20 06:20 199 5 gusting 10 17.2
2018-Sep-20 06:00 198 5 gusting 8 17.2